Location: DARK SKY Beskydy - Park tmavé oblohy, www.darkskybeskydy.cz
(49.4926°N, 18.5016°E)
Time: 10:26:14
(UTC+02:00)

Transit 4A - Pass Details

Date: 29 February 2024
Orbit: 871 x 971 km, 66.8° (Epoch: 24 April)

Event Time Altitude Azimuth Distance (km) Brightness Sun altitude
Exits shadow 02:09:15 22° 10° (N) 1,850 9.8 -40.2°
Drops below altitude 10° 02:11:42 10° 27° (NNE) 2,576 10.8 -39.9°
Sets 02:14:25 0° 36° (NE) 3,505 11.8 -39.6°
